Regional Weather Roundup
Issued by NWS

Home | Current Version | Previous Version | Graphics & Text | Print | Product List | Glossary On
Versions: 1 2 3 4 5 6 7 8 9 10 11 12 13 14 15 16 17 18 19 20 21 22 23 24 25 26 27 28 29 30 31 32 33 34 35 36 37 38 39 40 41 42 43 44 45 46 47 48 49 50
000
ASUS43 KMKX 070800
RWRWI

WISCONSIN REGIONAL WEATHER ROUNDUP
NATIONAL WEATHER SERVICE MILWAUKEE/SULLIVAN WI
300 AM CDT TUE JUL 07 2015

NOTE: "FAIR" INDICATES FEW OR NO CLOUDS BELOW 12,000 FEET WITH NO
SIGNIFICANT WEATHER AND/OR OBSTRUCTIONS TO VISIBILITY.

WIZ001-002-006>008-014>016-023>028-070900-
NORTHWEST WISCONSIN

CITY           SKY/WX    TMP DP  RH WIND       PRES   REMARKS
SUPERIOR ARPT  CLOUDY    56  43  61 N10G16    30.07R
ASHLAND        PTCLDY    51  46  83 NW3       30.05R
HAYWARD        CLEAR     48  45  89 CALM      30.05R
SIREN          PTCLDY    52  46  80 N5        30.07R
CUMBERLAND     CLEAR     52  45  76 N5        30.05R
RICE LAKE      CLEAR     54  46  74 N7        30.06R
CHETEK         CLEAR     55  47  76 NW5       30.04R
LADYSMITH      PTCLDY    53  48  82 N9        30.04R
EAU CLAIRE     NOT AVBL
MENOMONIE      CLEAR     55  49  81 NW7       30.04R
NEW RICHMOND   CLEAR     52  49  89 NW5       30.06R
OSCEOLA        CLOUDY    55  49  79 NW5       30.10R
$$

WIZ003>005-009-010-017-018-070900-
NORTH CENTRAL WISCONSIN

CITY           SKY/WX    TMP DP  RH WIND       PRES   REMARKS
MANITOWISH WTR CLOUDY    51  48  91 N6        30.01R
ARBOR VITAE    CLOUDY    52  48  87 N9        30.00R
WOODRUFF       CLOUDY    52  48  87 N9        30.00R
RHINELANDER    CLOUDY    53  47  79 N9        30.00R
EAGLE RIVER    CLOUDY    52  48  87 N5        29.99R
LAND O LAKES   CLOUDY    52  47  83 N10G16    30.00R
PHILLIPS       CLEAR     51  48  88 N6        30.01R
TOMAHAWK       CLEAR     51  48  89 N7        29.99R
MEDFORD        CLEAR     53  50  89 N12G18    30.00R
MERRILL        CLEAR     54  53  97 N8        29.98R FOG
$$

WIZ029-030-035-036-043>047-070900-
CENTRAL WISCONSIN

CITY           SKY/WX    TMP DP  RH WIND       PRES   REMARKS
WAUSAU         MOCLDY    56  53  90 NW8       29.96R FOG
MOSINEE        PTCLDY    54  54 100 NW9       29.98R FOG
MARSHFIELD     CLEAR     56  52  86 N9        29.99R FOG
STEVENS POINT  PTCLDY    54  53  95 NW6       29.97R FOG
WAUPACA        CLOUDY    63  57  81 N7        29.94R HAZE
WAUTOMA        NOT AVBL
WISC RAPIDS    PTCLDY    57  53  86 N9        29.97R FOG
CAMP DOUGLAS   NOT AVBL
$$

WIZ011>013-019>022-031-037>040-048>050-070900-
NORTHEAST WISCONSIN

CITY           SKY/WX    TMP DP  RH WIND       PRES   REMARKS
ANTIGO         PTCLDY    54  53  97 N6        29.96R FOG
SHAWANO        CLOUDY    62  57  84 N5        29.94R HAZE
OCONTO         CLOUDY    59  59 100 N5        29.91R
STURGEON BAY   CLOUDY    59  48  67 N16G29    29.93R
GREEN BAY      CLOUDY    62  57  83 N9        29.92R HAZE
MANITOWOC      NOT AVBL
APPLETON       CLOUDY    61  54  77 N8        29.93R HAZE
CLINTONVILLE   CLOUDY    61  54  77 N7        29.93R HAZE
OSHKOSH        CLOUDY    62  56  80 N7        29.92R HAZE
$$

WIZ032>034-041-042-053>061-070900-
SOUTHWEST WISCONSIN

CITY           SKY/WX    TMP DP  RH WIND       PRES   REMARKS
LA CROSSE      CLOUDY    61  58  90 N7        29.99R FOG
SPARTA           N/A     51  50  96 CALM      29.99R FOG
VIROQUA        CLEAR     56  56 100 N6        29.98S
BOSCOBEL       PTCLDY    60  56  86 N3        29.96S FOG
PRAIRIE DU CHI PTCLDY    60  55  81 NW5       29.96S HAZE
PLATTEVILLE    MOCLDY    60  57  90 N9G17     29.94R
$$

WIZ056-057-062-063-064-067-068-070900-
SOUTH CENTRAL WISCONSIN

CITY           SKY/WX    TMP DP  RH WIND       PRES   REMARKS
REEDSBURG      MOCLDY    58  56  94 N7        29.94S FOG
BARABOO/DELLS  CLOUDY    61  55  82 N6        29.94S HAZE
LONE ROCK      NOT AVBL
MINERAL POINT  MOCLDY    61  55  82 N10       29.94S FOG
MADISON        CLOUDY    62  57  83 N9        29.92R HAZE
MIDDLETON      CLOUDY    63  59  86 N9        29.93R
WATERTOWN      CLOUDY    59  59 100 N13G21    29.90R FOG
MONROE         CLOUDY    61  57  88 N13       29.91R FOG
JANESVILLE     CLOUDY    61  59  94 N12G18    29.88S
$$

WIZ051-052-058>065-066-070>072-070900-
SOUTHEAST WISCONSIN

CITY           SKY/WX    TMP DP  RH WIND       PRES   REMARKS
MILWAUKEE      LGT RAIN  59  57  93 N18G26    29.87R FOG
WAUKESHA       DRIZZLE   59  59 100 N13       29.88R
MILWAUKEE/TIMM RAIN      61  57  88 N12G17    29.88R
RACINE         LGT RAIN  60  57  89 N20G29    29.90R FOG
BURLINGTON     CLOUDY    62  61  96 N9        29.87R
KENOSHA        RAIN      62  59  90 NE16G29   29.87R FOG
FOND DU LAC    LGT RAIN  61  58  90 N8        29.92R FOG
SHEBOYGAN      LGT RAIN  59  57  93 N8        29.90R FOG
WEST BEND      DRIZZLE   59  55  88 N10       29.90R
JUNEAU         DRIZZLE   58  57  97 N10G18    29.92R
$$

LSZ147-162-070900-
LAKE SUPERIOR

STATION/POSITION TIME  TEMP    WIND        PRES    WAVE
                       AIR SEA DIR/SP/G            HT/PER
                 (UTC) (F)     (DEG/KT/KT) (MB)    (FT/S)
W MID LAKE BUOY  0650   45 39  280/  8/  8 1016.2R   1/ 4
DEVILS ISLAND    0700   56     320/ 13/ 16 1017.1R
PORT WING        0700   58     330/ 11/ 12 1017.6
SAXON HARBOR     0700   59     360/ 11/ 14 1016.6R
$$

LMZ867-665-643>646-070900-
LAKE MICHIGAN

STATION/POSITION TIME  TEMP    WIND        PRES    WAVE
                       AIR SEA DIR/SP/G            HT/PER
                 (UTC) (F)     (DEG/KT/KT) (MB)    (FT/S)
CHAMBERS ISLAND  0700   61     340/ 19/ 23 1012.2S
N MID LAKE BUOY  0650   56 56  320/ 14/ 16 1011.2R   2/ 5
NORTHPORT PIER   0700   60     340/ 23/ 25 1012.2R
SISTER BAY       0729   58      10/ 20/ 27   N/A
ALGOMA LAKESHORE 0741          360/  9/ 13   N/A
KEWAUNEE LAKESHO 0700   60     360/  8/ 12 1011.2R
SHEBOYGAN LAKESH 0700   56     360/ 13/ 13 1012.0R
PORT WASHINGTON  0700   61      30/  9/ 14 1011.9
ATWATER BUOY     0700   60 58   20/ 19/ 23 1012.1R
MILWAUKEE LAKESH 0700   60      10/ 17/ 22   N/A
KENOSHA   LAKESH 0700   74     250/  8/ 13 1009.1S
$$

TC  - TEMPERATURE IN CELSIUS
VSB - VISIBILITY IN STATUTE MILES
WCI - WIND CHILL INDEX
HX  - HEAT INDEX




USA.gov is the U.S. government's official web portal to all federal, state and local government web resources and services.